[[{"header":{"parameterUnit":"m.s-1","parameterCategory":1,"la1":30.2991,"la2":30.254,"lo1":-89.0895,"lo2":-89.0444,"dy":0.0017,"dx":0.0017,"nx":28,"ny":28,"refTime":"2024-10-21T09:00:00:Z","depth":0,"parameterNumber":2,"parameterNumberName":"U-component_of_WINDS"},"data":[0,0,0,0,0,0,0,0,0,0,0,0,0,0,0,0,0,0,0,0,0,0,0,0,0,0,0,0,0,0,0,0,0,0,0,0,0,0,0,0,0,0,0,0,0,0,0,0,0,0,0,0,0,0,0,0,0,0,-2.6131,-2.6131,0,-2.6105,-2.6105,-2.6105,-2.5951,-2.5947,-2.5944,-2.594,-2.5917,-2.592,-2.5923,0,0,0,0,0,0,0,0,0,0,0,0,0,-2.605,-2.6052,-2.6131,-2.6131,-2.613,-2.6105,-2.6105,-2.6105,-2.5952,-2.5947,-2.5943,-2.5938,-2.5916,-2.5919,-2.5923,0,0,0,0,0,0,0,0,0,0,0,0,0,-2.6061,-2.6053,-2.6131,-2.6051,-2.6043,-2.6106,-2.6105,-2.6105,-2.5953,-2.5947,-2.5941,-2.5936,-2.5915,-2.5919,-2.5923,-2.6061,0,0,-2.5936,-2.5938,0,0,0,0,0,0,0,0,-2.6061,-2.6064,-2.6063,-2.6057,-2.6048,-2.6025,-2.6068,-2.609,-2.5954,-2.5987,-2.594,-2.5933,-2.5958,-2.5958,-2.5966,-2.606,-2.6059,-2.5937,-2.5939,-2.5941,-2.5942,0,0,0,0,0,0,0,-2.606,-2.6064,-2.6121,-2.6063,-2.6054,-2.6017,-2.6012,-2.6071,-2.6004,-2.5984,-2.5973,-2.5972,-2.5953,-2.5962,-2.5964,-2.6059,-2.5937,-2.594,-2.5943,-2.5945,-2.6267,-2.6272,0,0,0,0,0,0,-2.607,-2.6065,-2.6122,-2.612,-2.6041,-2.6023,-2.6018,-2.6039,-2.6003,-2.5992,-2.5976,-2.5964,-2.5957,-2.5959,-2.5963,-2.6123,-2.5941,-2.5945,-2.5948,-2.6261,-2.6268,-2.6274,0,0,0,0,0,0,-2.6069,-2.6077,-2.6123,-2.6089,-2.6092,-2.603,-2.6055,-2.6041,-2.605,-2.5997,-2.5985,-2.5998,-2.5953,-2.5957,-2.6038,-2.612,-2.5947,-2.5951,-2.6254,-2.6263,-2.6271,-2.6446,0,0,0,0,0,0,-2.6067,-2.6077,-2.6129,-2.6092,-2.6095,-2.6199,-2.606,-2.6045,-2.6058,-2.6042,-2.6014,-2.6005,-2.5949,-2.6032,-2.6042,-2.6123,-2.5954,-2.6246,-2.6258,-2.6268,-2.6432,-2.6459,-2.6483,0,0,0,0,0,-2.6065,-2.6179,-2.6132,-2.614,-2.6158,-2.6203,-2.6205,-2.6138,-2.6065,-2.6116,-2.6082,-2.6005,-2.6109,-2.6042,-2.6052,-2.6135,-2.6241,-2.6254,-2.6267,-2.6421,-2.6454,-2.6482,0,0,0,0,0,0,-2.6229,-2.6173,-2.612,-2.6225,-2.622,-2.6177,-2.6241,-2.6175,-2.6192,-2.6176,-2.6093,-2.6088,-2.6182,-2.6166,-2.6092,-2.6267,-2.6162,-2.6178,-2.6275,-2.6306,-2.6331,-2.6334,-2.5958,0,0,0,0,0,-2.6277,-2.6318,-2.6267,-2.6365,-2.6365,-2.6304,-2.6321,-2.627,-2.6261,-2.6259,-2.623,-2.6226,-2.6258,-2.628,-2.6306,-2.6428,-2.6421,-2.649,-2.6515,-2.6536,-2.6552,-2.6617,-2.6648,-2.6319,-2.6318,-2.6318,0,0,-2.6377,-2.6352,-2.6383,-2.6397,-2.6387,-2.6433,-2.6303,-2.6356,-2.639,-2.6267,-2.6342,-2.6322,-2.6311,-2.6414,-2.6458,-2.6404,-2.6641,-2.6554,-2.6571,-2.6575,-2.6634,-2.6665,-2.6693,-2.6328,-2.6326,-2.6325,0,0,-2.6584,-2.6568,-2.6648,-2.6641,-2.6627,-2.6585,-2.6605,-2.6571,-2.6553,-2.6627,-2.6536,-2.6574,-2.663,-2.6627,-2.6633,-2.6838,-2.6768,-2.6848,-2.6981,-2.7045,-2.7071,-2.7094,-2.7169,-2.7197,-2.6863,-2.6864,-2.6864,0,-2.6711,-2.6775,-2.6698,-2.6758,-2.6768,-2.6657,-2.6739,-2.6735,-2.6731,-2.6741,-2.6679,-2.6747,-2.6732,-2.6834,-2.6884,-2.6891,-2.6912,-2.6852,-2.7073,-2.7095,-2.7115,-2.7186,-2.7215,-2.6874,-2.6873,-2.6872,-2.6871,0,-2.6933,-2.6979,-2.7046,-2.7044,-2.706,-2.7131,-2.7066,-2.7092,-2.7039,-2.7004,-2.7082,-2.706,-2.708,-2.7099,-2.7048,-2.7194,-2.7161,-2.7088,-2.698,-2.7158,-2.7223,-2.725,-2.6888,-2.6885,-2.6882,-2.6879,0,0,-2.7245,-2.7198,-2.7225,-2.7223,-2.7199,-2.7233,-2.7299,-2.7317,-2.7342,-2.7343,-2.7397,-2.7446,-2.7379,-2.7385,-2.7332,-2.7388,-2.7555,-2.7308,-2.7307,-2.7357,-2.7716,-2.7774,-2.7806,-2.7507,-2.7512,-2.7516,-2.7718,0,-2.7445,-2.7554,-2.7486,-2.7606,-2.7649,-2.7544,-2.7601,-2.7593,-2.7562,-2.7594,-2.7559,-2.7597,-2.7503,-2.7507,-2.7557,-2.7524,-2.7626,-2.7508,-2.7559,-2.7562,-2.7568,-2.784,-2.79,-2.8092,-2.7743,-2.7747,-2.775,0,-2.7693,-2.7704,-2.7828,-2.7796,-2.7811,-2.7864,-2.7876,-2.7907,-2.7896,-2.787,-2.7877,-2.7811,-2.7874,-2.7766,-2.7853,-2.7774,-2.779,-2.7777,-2.7783,-2.7788,-2.7669,-2.7854,-2.8151,-2.8182,-2.7789,-2.7786,-2.7783,0,-2.7911,-2.7956,-2.8037,-2.8038,-2.8002,-2.8042,-2.8029,-2.8012,-2.8028,-2.8038,-2.8048,-2.8066,-2.8077,-2.8093,-2.8033,-2.796,-2.8129,-2.8016,-2.8111,-2.8113,-2.8154,-2.8153,-2.8461,-2.816,-2.816,-2.8159,-2.8159,0,-2.8143,-2.8224,-2.8134,-2.8184,-2.8272,-2.8193,-2.8282,-2.8258,-2.8244,-2.8288,-2.8198,-2.8242,-2.8159,-2.8194,-2.8148,-2.8228,-2.8233,-2.8215,-2.8202,-2.8225,-2.8227,-2.8236,-2.8223,-2.8167,-2.8165,-2.8164,-2.8163,0,-2.8403,-2.8345,-2.8427,-2.8385,-2.8377,-2.8444,-2.8409,-2.8454,-2.8416,-2.8473,-2.8482,-2.8423,-2.846,-2.8401,-2.8432,-2.84,-2.8513,-2.8478,-2.8517,-2.8508,-2.8607,-2.86,-2.8934,-2.8975,-2.8646,-2.865,-2.8652,0,-2.8556,-2.8616,-2.8581,-2.8603,-2.8596,-2.8633,-2.8648,-2.8573,-2.8593,-2.8585,-2.8632,-2.8661,-2.868,-2.8745,-2.8706,-2.8729,-2.8696,-2.8811,-2.8699,-2.872,-2.8701,-2.8699,-2.8706,-2.8836,-2.884,-2.8843,-2.8845,0,-2.8836,-2.8804,-2.8829,-2.8845,-2.8865,-2.8874,-2.8877,-2.89,-2.8821,-2.8848,-2.8884,-2.89,-2.893,-2.8962,-2.8975,-2.8962,-2.8893,-2.888,-2.8904,-2.8929,-2.8951,-2.8943,-2.8583,-2.8874,-2.8871,-2.8869,-2.8867,-2.8866,-2.9048,-2.9097,-2.908,-2.9111,-2.9104,-2.9109,-2.9149,-2.9116,-2.9144,-2.9163,-2.9117,-2.9165,-2.9152,-2.9163,-2.9158,-2.9195,-2.9144,-2.9178,-2.9187,-2.9198,-2.9214,-2.8942,-2.9197,-2.9196,-2.9195,-2.9194,-2.9194,0,-2.9325,-2.9308,-2.9338,-2.9343,-2.9368,-2.9297,-2.9296,-2.9323,-2.9366,-2.9359,-2.938,-2.9423,-2.9452,-2.9415,-2.9438,-2.9475,-2.9444,-2.9484,-2.9482,-2.9481,-2.9257,-2.9235,-2.9509,-2.9509,-2.9509,-2.9509,-2.9509,-2.9509,-2.9472,-2.9551,-2.9517,-2.9593,-2.9575,-2.9621,-2.9627,-2.9631,-2.9625,-2.9676,-2.97,-2.9675,-2.9657,-2.9677,-2.9702,-2.969,-2.9704,-2.9757,-2.9734,-2.9527,-2.9496,-2.9467,-2.9446,-2.976,-2.976,-2.9955,-2.9956,-2.9958]},{"header":{"parameterUnit":"m.s-1","parameterCategory":1,"la1":30.2991,"la2":30.254,"lo1":-89.0895,"lo2":-89.0444,"dy":0.0017,"dx":0.0017,"nx":28,"ny":28,"refTime":"2024-10-21T09:00:00:Z","depth":0,"parameterNumber":3,"parameterNumberName":"V-component_of_WINDS"},"data":[0,0,0,0,0,0,0,0,0,0,0,0,0,0,0,0,0,0,0,0,0,0,0,0,0,0,0,0,0,0,0,0,0,0,0,0,0,0,0,0,0,0,0,0,0,0,0,0,0,0,0,0,0,0,0,0,0,0,-2.0766,-2.0766,0,-2.0804,-2.0805,-2.0805,-2.0816,-2.0815,-2.0815,-2.0815,-2.0851,-2.0852,-2.0853,0,0,0,0,0,0,0,0,0,0,0,0,0,-2.0696,-2.0698,-2.0765,-2.0766,-2.0766,-2.0804,-2.0805,-2.0805,-2.0816,-2.0815,-2.0815,-2.0815,-2.0851,-2.0852,-2.0853,0,0,0,0,0,0,0,0,0,0,0,0,0,-2.073,-2.0698,-2.0765,-2.0776,-2.0778,-2.0804,-2.0805,-2.0805,-2.0816,-2.0815,-2.0815,-2.0815,-2.085,-2.0852,-2.0854,-2.0871,0,0,-2.0859,-2.086,0,0,0,0,0,0,0,0,-2.0728,-2.0732,-2.0774,-2.0776,-2.0777,-2.0805,-2.0793,-2.0827,-2.0816,-2.0801,-2.0815,-2.0815,-2.0836,-2.0839,-2.0846,-2.0872,-2.0874,-2.0859,-2.086,-2.0861,-2.0861,0,0,0,0,0,0,0,-2.0726,-2.0731,-2.0781,-2.0775,-2.0777,-2.0778,-2.0782,-2.08,-2.082,-2.0802,-2.0803,-2.0808,-2.0836,-2.0845,-2.0847,-2.0874,-2.0859,-2.086,-2.0862,-2.0862,-2.0915,-2.0915,0,0,0,0,0,0,-2.0722,-2.0729,-2.0779,-2.0782,-2.0751,-2.0779,-2.0784,-2.0796,-2.0819,-2.0823,-2.0808,-2.0808,-2.0842,-2.0845,-2.0849,-2.0869,-2.0861,-2.0862,-2.0863,-2.0914,-2.0915,-2.0915,0,0,0,0,0,0,-2.072,-2.0726,-2.0778,-2.0756,-2.0762,-2.0781,-2.0794,-2.0797,-2.0806,-2.0824,-2.0827,-2.0813,-2.0842,-2.0846,-2.0865,-2.0871,-2.0863,-2.0865,-2.0914,-2.0914,-2.0915,-2.0911,0,0,0,0,0,0,-2.0718,-2.0726,-2.0734,-2.0756,-2.0763,-2.0795,-2.0795,-2.0798,-2.0809,-2.0809,-2.083,-2.0832,-2.0842,-2.0862,-2.0867,-2.0873,-2.0866,-2.0913,-2.0914,-2.0915,-2.0911,-2.0912,-2.0912,0,0,0,0,0,-2.0716,-2.0731,-2.0734,-2.074,-2.0774,-2.0795,-2.08,-2.0811,-2.0809,-2.0817,-2.0828,-2.0832,-2.0869,-2.0864,-2.0869,-2.0876,-2.0913,-2.0914,-2.0915,-2.0911,-2.0912,-2.0912,0,0,0,0,0,0,-2.0708,-2.0734,-2.0738,-2.076,-2.0776,-2.0797,-2.0807,-2.0812,-2.0827,-2.0827,-2.0839,-2.0843,-2.0861,-2.087,-2.0864,-2.0893,-2.0891,-2.0893,-2.0886,-2.0887,-2.0888,-2.0885,-2.0868,0,0,0,0,0,-2.0709,-2.0725,-2.0747,-2.0764,-2.0772,-2.0788,-2.0798,-2.0805,-2.0821,-2.0827,-2.084,-2.0854,-2.0869,-2.0879,-2.0894,-2.0912,-2.0916,-2.0919,-2.092,-2.092,-2.0922,-2.0931,-2.0932,-2.0918,-2.0918,-2.0918,0,0,-2.0711,-2.0727,-2.0736,-2.0763,-2.0776,-2.0791,-2.0793,-2.081,-2.0821,-2.0829,-2.0848,-2.0858,-2.0874,-2.0893,-2.0902,-2.0901,-2.0927,-2.0921,-2.0922,-2.0923,-2.0932,-2.0933,-2.0935,-2.0918,-2.0918,-2.0918,0,0,-2.0722,-2.0736,-2.0752,-2.0765,-2.0785,-2.0795,-2.0799,-2.0819,-2.0826,-2.0846,-2.0852,-2.0865,-2.089,-2.0902,-2.0911,-2.0925,-2.0929,-2.0929,-2.0932,-2.0941,-2.0942,-2.0943,-2.0948,-2.0949,-2.0931,-2.0931,-2.0931,0,-2.0721,-2.0747,-2.076,-2.0776,-2.0787,-2.0796,-2.0811,-2.0822,-2.0845,-2.0852,-2.0851,-2.0883,-2.0895,-2.0916,-2.0919,-2.0926,-2.093,-2.0927,-2.0941,-2.0943,-2.0944,-2.0948,-2.095,-2.093,-2.093,-2.093,-2.093,0,-2.0744,-2.0761,-2.0772,-2.0795,-2.0806,-2.0822,-2.0836,-2.0846,-2.0852,-2.0862,-2.0881,-2.0895,-2.0912,-2.0918,-2.0924,-2.0939,-2.0938,-2.0939,-2.0938,-2.0945,-2.0949,-2.0951,-2.093,-2.093,-2.093,-2.093,0,0,-2.0752,-2.0782,-2.0785,-2.0795,-2.0817,-2.0829,-2.0845,-2.0863,-2.0871,-2.0886,-2.0898,-2.0919,-2.092,-2.093,-2.0937,-2.0945,-2.0954,-2.0945,-2.0946,-2.0946,-2.0971,-2.0969,-2.0971,-2.0957,-2.0957,-2.0957,-2.0969,0,-2.0766,-2.0795,-2.0806,-2.0829,-2.0844,-2.0853,-2.0866,-2.0879,-2.0889,-2.0902,-2.0911,-2.0926,-2.0927,-2.0933,-2.0941,-2.0951,-2.0959,-2.0951,-2.0967,-2.0967,-2.0962,-2.0973,-2.0972,-2.0983,-2.0971,-2.0971,-2.0971,0,-2.0785,-2.0802,-2.0826,-2.0845,-2.0852,-2.0864,-2.088,-2.0893,-2.0908,-2.0914,-2.0926,-2.0932,-2.0947,-2.0944,-2.0963,-2.0957,-2.0964,-2.097,-2.0971,-2.0973,-2.097,-2.0975,-2.0986,-2.0988,-2.0974,-2.0974,-2.0974,0,-2.0787,-2.0815,-2.0833,-2.0842,-2.0865,-2.0872,-2.0882,-2.0897,-2.0907,-2.0921,-2.0927,-2.0942,-2.095,-2.0961,-2.0971,-2.0968,-2.0989,-2.0988,-2.0993,-2.0993,-2.0997,-2.0997,-2.101,-2.1003,-2.1003,-2.1003,-2.1003,0,-2.0801,-2.0816,-2.0835,-2.0846,-2.0862,-2.0874,-2.0889,-2.0899,-2.0912,-2.0924,-2.0932,-2.0942,-2.0955,-2.0967,-2.0974,-2.0989,-2.0992,-2.0997,-2.0999,-2.0996,-2.0995,-2.1001,-2.1,-2.1003,-2.1003,-2.1003,-2.1003,0,-2.0806,-2.082,-2.084,-2.086,-2.0865,-2.0876,-2.0892,-2.0902,-2.0912,-2.0927,-2.0931,-2.0946,-2.096,-2.0971,-2.0989,-2.0994,-2.1009,-2.1011,-2.1004,-2.1005,-2.101,-2.1009,-2.1027,-2.1029,-2.1021,-2.1021,-2.1021,0,-2.0814,-2.0825,-2.0847,-2.0856,-2.0866,-2.088,-2.089,-2.0902,-2.0912,-2.093,-2.0937,-2.0953,-2.0965,-2.0988,-2.0999,-2.1013,-2.1015,-2.102,-2.1017,-2.1014,-2.1014,-2.1013,-2.1014,-2.102,-2.102,-2.102,-2.102,0,-2.0826,-2.0832,-2.0846,-2.0863,-2.0875,-2.0889,-2.0903,-2.0909,-2.0923,-2.0934,-2.0949,-2.0959,-2.0978,-2.0992,-2.1007,-2.1015,-2.102,-2.1021,-2.1023,-2.102,-2.1016,-2.1018,-2.1005,-2.1021,-2.1021,-2.1021,-2.102,-2.102,-2.0832,-2.0842,-2.0859,-2.0874,-2.0886,-2.0898,-2.0909,-2.092,-2.0933,-2.095,-2.0956,-2.0972,-2.0985,-2.1006,-2.1014,-2.1025,-2.1025,-2.1028,-2.1029,-2.1029,-2.1029,-2.1014,-2.1028,-2.1028,-2.1028,-2.1028,-2.1028,0,-2.0843,-2.0854,-2.0869,-2.0888,-2.09,-2.0904,-2.0919,-2.0929,-2.0943,-2.0955,-2.0968,-2.0985,-2.0999,-2.1011,-2.1025,-2.1031,-2.1034,-2.1035,-2.1034,-2.1036,-2.1029,-2.1025,-2.1033,-2.1033,-2.1033,-2.1033,-2.1033,-2.1033,-2.0851,-2.0868,-2.0876,-2.0898,-2.0909,-2.0925,-2.0933,-2.0944,-2.0954,-2.0973,-2.0985,-2.0993,-2.1005,-2.102,-2.1033,-2.1036,-2.104,-2.1041,-2.1044,-2.1037,-2.1036,-2.1036,-2.1033,-2.1042,-2.1042,-2.105,-2.105,-2.105]}]]